Theta_e
316 316 316 322 328 329 329 327 331 332 330 335 334 333 333 328 324 322 327 324 323 322 317 319 317 316 317 317 321 319 318 322 324 323 323 319 313 315 315 314 313 310 309 308 308 307 307 306 306 305 304 303 301 301 300 299 299 299 298 298 298 298 302 303 303 306 306 306 307 306 305 306 304 301 299 297 298 296 295 295 295 295 296 298 299 301 303 305 306 306 306 306 306 306 306 305 305
319 320 322 327 329 328 329 325 333 335 331 335 332 334 333 324 323 328 333 331 326 320 316 318 316 315 315 314 314 314 316 316 316 317 316 314 313 314 314 314 312 310 309 308 307 306 307 306 306 306 304 303 302 301 300 299 299 299 298 298 298 297 298 299 299 303 304 305 306 303 302 303 301 299 297 297 296 294 294 294 294 294 295 296 297 297 298 300 302 304 305 305 305 304 305 304 303
323 325 327 329 328 327 328 327 335 335 332 333 331 332 329 324 328 332 332 326 319 315 317 316 315 315 314 315 314 315 318 315 314 315 314 313 313 313 313 312 311 310 309 308 307 307 307 307 307 306 305 304 303 301 300 299 299 299 298 298 297 297 297 297 297 299 299 301 302 300 299 298 297 296 295 296 294 293 294 293 293 294 294 294 295 295 296 297 298 300 301 301 301 302 304 302 301
326 328 327 328 326 326 329 331 336 336 333 332 333 335 332 331 333 331 322 316 315 315 316 315 316 315 314 317 315 314 315 313 314 315 314 313 313 312 312 311 310 309 308 308 307 307 307 307 307 306 305 305 303 302 300 299 299 299 298 298 297 297 297 297 297 297 296 297 297 296 296 295 295 294 294 294 293 293 293 293 293 293 294 294 294 294 295 295 295 296 296 296 297 299 301 300 300
327 327 325 326 326 326 329 329 332 333 331 332 336 338 337 334 335 332 318 312 315 314 314 314 316 314 313 316 313 314 315 313 313 313 314 314 312 311 311 310 310 309 308 307 307 308 307 307 307 306 306 305 304 303 301 300 299 299 298 298 298 297 297 297 296 296 296 296 296 295 295 295 294 294 294 294 293 293 293 293 293 293 294 294 294 294 295 295 295 295 294 295 294 296 298 298 297
327 326 323 323 324 323 326 328 329 331 330 332 333 335 338 332 327 323 314 312 313 313 313 313 314 312 311 313 312 314 314 313 312 312 313 312 312 311 311 310 310 309 308 307 307 308 307 307 307 307 307 306 305 303 301 300 299 299 299 298 298 297 297 297 296 296 296 296 295 295 295 295 295 294 294 294 293 293 293 293 293 293 294 294 294 294 295 295 295 295 295 295 294 294 295 295 295
323 324 322 323 323 321 327 330 331 331 329 328 329 331 334 324 315 314 313 313 314 312 312 312 312 311 311 312 312 313 312 312 312 311 311 311 312 311 310 310 310 309 308 307 307 307 307 307 307 307 307 306 306 304 302 300 300 299 299 298 298 298 297 297 297 296 296 296 295 295 295 295 294 294 294 294 293 293 293 293 293 293 294 294 294 294 295 295 295 295 295 295 295 295 295 295 295
319 321 319 324 327 323 327 329 329 330 328 325 322 323 324 319 311 314 317 314 315 313 311 312 310 312 314 311 310 312 311 312 312 311 311 310 311 310 310 310 309 309 308 307 307 307 307 307 307 307 307 307 306 305 304 302 302 301 300 300 299 298 298 298 297 297 296 296 296 295 295 295 294 294 294 294 293 293 293 293 293 293 294 294 294 294 295 295 295 294 295 294 294 294 294 294 294
317 319 319 323 326 324 326 326 326 325 327 325 320 317 316 316 312 315 319 313 312 311 310 311 310 312 314 311 310 311 310 311 311 311 311 311 311 310 310 309 309 309 308 308 307 307 307 307 307 307 307 307 307 306 306 305 304 304 303 302 302 301 300 300 299 298 298 297 297 296 296 295 295 294 294 294 294 293 293 293 293 293 293 294 294 294 294 294 294 294 294 294 294 294 294 294 294
317 318 319 322 323 323 325 322 322 324 326 322 317 316 314 315 313 311 316 314 311 311 310 310 311 311 311 310 311 311 311 310 310 311 311 311 311 310 310 309 309 308 308 308 307 307 307 307 307 307 307 307 307 307 307 307 306 306 305 304 304 303 302 301 301 300 300 299 298 297 297 296 295 295 294 294 294 294 293 293 293 293 293 294 294 294 294 294 294 294 294 294 294 294 294 294 294
317 316 317 321 323 323 325 323 321 322 324 319 314 314 315 315 312 309 311 313 312 310 310 311 312 311 310 310 311 311 311 310 310 310 310 311 311 311 310 309 309 308 308 308 307 307 307 307 307 307 307 308 307 307 307 307 307 306 306 305 304 303 303 302 301 301 300 300 299 299 298 297 297 296 295 295 294 294 294 294 294 293 293 293 294 293 293 293 294 294 294 293 293 293 293 293 293
315 318 322 323 325 325 325 324 321 320 320 321 319 315 315 313 312 314 313 313 311 310 310 311 312 311 312 313 310 311 310 310 311 310 311 311 311 311 311 310 309 308 307 307 307 307 307 307 307 307 307 308 308 308 307 307 307 306 306 305 304 303 303 302 301 301 300 300 300 299 299 299 298 297 296 295 295 295 294 294 294 293 293 293 293 293 293 293 293 293 293 293 293 293 293 293 293
313 318 324 322 324 327 323 320 321 321 317 319 318 314 314 311 312 314 312 312 310 310 313 311 311 311 312 313 310 310 310 310 310 311 312 311 311 311 311 310 309 308 307 307 307 307 307 307 307 307 307 307 308 308 307 307 307 307 306 305 304 304 303 302 302 301 301 300 300 299 299 299 299 298 297 296 295 295 294 293 293 293 293 293 293 293 293 293 293 293 293 292 292 293 292 293 293
312 314 318 317 318 323 319 316 319 316 314 316 314 312 314 312 312 312 311 314 313 312 314 312 311 310 310 311 310 311 310 310 309 310 312 311 311 311 311 310 309 308 307 307 307 307 307 307 307 307 307 307 308 308 308 307 307 307 306 306 305 304 304 303 302 301 301 300 300 299 299 299 298 298 298 297 297 295 294 293 293 293 292 292 292 292 292 292 292 292 292 292 292 292 292 292 292
312 312 316 316 315 317 314 314 315 312 314 317 313 312 312 312 313 312 311 315 315 313 313 312 310 310 311 311 311 311 311 310 309 310 311 311 311 311 311 310 310 309 307 307 307 307 307 307 307 307 307 307 307 307 308 307 307 307 306 306 305 305 304 303 302 301 301 300 300 300 299 299 298 298 298 298 298 297 295 294 293 293 292 292 292 292 292 292 292 292 292 291 292 292 292 292 291
311 311 316 316 316 314 312 313 314 313 317 316 311 311 314 314 313 313 313 313 314 313 312 312 311 311 311 311 311 311 311 311 310 310 311 311 311 311 310 310 310 309 307 307 306 307 306 307 306 307 307 307 307 307 307 307 307 306 306 306 305 305 304 303 302 302 301 301 301 300 300 299 299 298 298 298 298 298 296 295 294 293 292 292 292 292 292 292 292 291 291 291 291 292 292 291 291
310 311 314 315 315 314 313 316 315 314 319 317 310 311 317 318 313 312 314 312 313 312 312 312 311 311 311 311 311 311 311 311 310 310 311 311 311 310 310 310 309 308 308 307 306 307 306 307 307 306 306 306 307 307 307 307 307 306 306 306 305 305 305 304 303 302 302 302 301 301 301 300 299 299 297 297 297 297 296 295 294 293 293 292 293 292 292 292 292 291 291 291 291 292 292 291 292
311 313 312 313 316 314 316 320 315 312 316 315 311 310 315 318 313 311 312 312 312 312 311 312 312 311 311 311 311 310 311 311 310 310 310 310 310 310 310 309 309 309 309 308 307 307 306 306 306 306 306 306 306 307 307 307 307 306 306 306 305 305 305 304 304 303 303 302 302 302 301 300 299 298 297 296 296 295 295 295 294 294 293 293 293 292 292 292 291 291 291 291 291 291 291 291 291
312 315 312 317 321 313 311 314 311 310 312 311 309 309 311 314 311 310 312 311 309 311 312 310 311 312 311 311 311 311 310 310 311 310 310 310 310 310 310 310 310 310 309 309 309 308 307 307 306 306 306 306 306 306 307 307 307 307 306 306 305 305 304 304 303 303 303 302 302 302 301 300 299 298 297 295 295 294 294 294 294 294 293 293 292 292 292 292 292 291 291 291 291 291 291 291 291
311 311 315 324 321 312 308 308 309 309 310 307 307 309 309 311 310 309 311 310 309 311 311 309 310 311 311 311 311 311 311 310 311 310 310 310 310 310 310 310 310 310 310 310 310 309 308 307 307 306 306 306 306 306 306 307 307 307 306 306 305 305 304 304 303 303 303 302 302 302 301 300 299 298 297 296 295 294 294 294 294 294 294 293 292 292 292 292 291 291 291 291 291 291 291 291 291
310 311 320 321 311 311 311 309 309 309 309 308 307 308 308 309 310 310 309 311 312 310 309 310 310 310 310 310 311 311 311 311 310 311 311 310 310 310 310 310 310 310 310 310 310 310 309 308 307 307 306 306 306 306 306 306 306 306 306 306 305 305 304 304 304 303 303 302 302 302 301 300 300 299 298 297 296 295 294 294 294 294 294 293 292 292 292 291 291 291 291 290 290 290 290 290 290
311 311 314 311 306 309 311 309 310 309 309 308 307 308 309 308 308 309 309 311 313 310 310 310 309 310 310 310 310 310 311 311 311 311 311 311 311 311 310 310 310 310 309 310 310 310 309 309 308 307 307 306 306 306 306 306 306 306 306 306 306 305 305 304 304 304 303 303 302 302 301 301 301 300 299 298 297 295 295 294 293 294 294 293 293 292 291 291 291 291 290 290 290 290 289 290 290
312 313 308 307 307 307 309 309 309 308 308 307 308 308 308 307 308 309 308 310 311 310 310 310 309 310 310 310 310 310 310 310 311 311 311 311 311 311 311 310 310 310 309 309 309 309 309 309 308 308 307 307 306 306 306 306 306 306 306 306 306 305 305 304 304 304 304 303 303 302 302 301 301 300 300 299 298 296 295 294 293 293 294 294 293 292 291 291 291 290 290 290 290 290 289 289 289
311 315 310 309 309 308 309 310 308 308 308 307 308 308 307 308 310 308 307 309 309 309 310 309 310 309 309 309 309 309 310 310 310 310 310 310 311 311 310 310 310 310 309 309 309 309 309 309 309 308 308 307 307 306 306 306 306 306 306 306 305 305 305 305 305 304 304 303 303 303 302 302 301 301 301 300 299 297 296 295 294 293 294 294 293 292 292 291 291 290 290 290 290 289 289 289 289
312 314 312 310 310 309 310 309 309 309 308 308 308 307 307 307 308 306 307 309 309 309 309 309 309 309 309 309 309 309 309 310 310 310 310 310 310 310 310 310 310 309 309 309 309 309 309 309 309 308 308 308 307 306 306 306 306 306 306 306 306 305 305 305 305 304 304 304 303 303 303 302 302 301 301 301 299 298 297 295 294 294 293 294 293 293 292 291 291 290 290 290 289 289 289 289 289
312 311 310 308 309 309 309 309 309 309 308 308 307 307 307 307 307 307 308 310 310 310 309 310 309 308 309 309 309 309 309 309 310 310 310 310 310 310 310 310 309 309 310 309 309 309 310 309 309 309 308 308 308 307 307 306 306 306 306 306 306 306 306 305 305 304 304 304 304 303 303 303 302 302 301 300 299 299 297 295 295 294 293 293 293 293 292 291 291 290 290 290 289 289 289 289 289
310 308 308 308 308 307 308 308 308 308 307 307 307 309 307 306 307 308 310 310 310 309 310 310 309 309 309 309 309 309 309 309 309 310 310 310 310 310 310 310 310 310 310 310 310 310 310 310 310 309 309 308 308 308 307 307 307 307 307 306 306 306 306 305 305 305 304 304 304 303 303 303 302 302 301 300 300 299 298 296 295 294 294 293 293 292 292 291 291 290 290 290 290 289 289 289 289
308 308 310 310 307 307 307 307 307 306 308 307 306 309 306 306 308 309 310 309 309 309 310 310 309 310 309 309 309 309 309 309 309 309 309 310 310 310 310 310 310 310 310 310 310 311 310 310 310 310 309 309 308 308 308 307 307 307 307 307 306 306 306 305 305 305 305 304 304 303 303 303 302 302 301 300 300 299 298 297 295 294 294 293 293 292 291 291 290 290 290 290 289 289 289 289 288
308 308 314 316 311 310 308 306 306 305 308 308 306 310 310 308 310 310 308 309 309 308 308 308 308 308 308 309 309 309 309 309 309 309 309 310 310 310 310 310 310 310 310 310 310 311 310 310 310 310 309 309 309 308 308 308 308 307 307 307 307 306 306 306 306 305 305 305 304 303 303 303 302 302 301 301 300 299 298 297 295 294 293 293 292 292 291 290 290 290 290 290 289 289 289 289 288
310 308 313 318 314 313 308 304 307 306 308 308 307 313 314 311 310 308 308 308 308 308 307 307 307 308 308 309 309 309 310 309 309 309 309 310 309 310 310 310 310 310 310 310 310 311 311 310 310 310 309 309 309 308 308 308 308 308 308 308 307 307 306 306 306 306 305 305 304 304 303 303 302 302 301 301 300 299 298 297 296 294 293 292 292 291 291 290 290 289 289 289 289 289 289 288 288
314 312 315 315 312 315 310 304 307 309 309 307 308 313 313 311 309 308 308 307 307 306 306 306 307 308 309 309 309 310 310 310 310 310 310 310 310 310 310 310 310 310 310 310 310 310 310 310 310 310 309 309 309 309 309 308 308 308 308 308 307 307 307 306 306 306 305 305 304 304 303 302 302 302 301 301 300 300 299 298 297 294 292 291 291 291 290 290 289 289 289 289 289 289 289 288 288
317 315 319 315 310 314 311 304 304 308 309 307 308 313 314 311 310 309 308 307 306 305 305 307 308 309 309 310 310 310 311 311 310 310 310 310 310 310 310 310 310 310 310 310 310 310 310 310 310 310 309 309 309 309 309 309 309 308 308 308 308 307 307 306 306 305 305 304 304 303 303 302 302 301 301 301 300 299 298 297 296 293 291 291 291 290 290 289 289 289 289 289 289 289 289 288 288
317 312 314 315 312 313 311 307 304 305 308 308 309 311 313 311 308 309 309 307 305 304 305 307 308 309 310 310 310 311 311 311 311 311 311 310 310 310 310 310 310 310 310 310 310 310 310 310 310 310 309 309 309 309 309 309 309 308 308 308 308 307 307 306 306 305 304 304 304 303 302 302 301 301 300 300 300 299 297 296 294 292 290 290 290 290 289 289 288 288 288 288 288 288 288 288 288
318 314 315 314 312 311 312 310 305 305 308 310 311 310 310 310 307 307 308 307 304 303 305 307 308 308 310 310 310 311 311 311 311 311 311 311 311 310 310 310 310 310 309 309 310 310 310 309 310 310 309 309 309 309 309 309 308 308 308 308 307 307 307 306 306 305 304 304 304 303 302 302 301 300 300 300 299 299 297 295 293 291 290 289 289 289 289 288 288 288 288 288 288 288 288 288 288
315 314 315 315 312 310 311 311 308 307 309 307 309 310 310 309 306 305 307 307 304 303 305 306 308 307 309 310 310 310 310 310 311 311 311 311 311 311 311 311 310 310 310 309 310 310 309 309 309 309 309 309 309 309 309 309 308 308 308 307 307 307 307 307 306 305 305 304 304 303 302 302 301 300 300 300 299 299 298 296 293 291 290 289 289 288 288 288 288 287 287 287 287 287 287 288 288
312 311 312 314 313 311 309 310 308 305 308 309 309 311 309 307 307 306 306 307 304 304 306 307 307 307 308 309 309 309 309 309 309 309 310 310 310 310 310 310 310 310 310 310 310 310 309 309 309 309 309 309 309 308 308 308 308 308 308 307 307 307 307 307 306 306 305 305 304 303 303 302 301 300 300 299 299 299 298 297 294 292 290 289 288 288 288 288 287 287 287 287 287 287 287 287 287
310 311 312 313 312 310 307 308 308 304 308 314 311 309 309 307 308 307 304 305 304 302 304 306 306 306 307 308 308 308 307 307 308 308 308 308 308 308 308 309 308 309 309 310 310 310 309 309 309 309 309 308 308 308 308 308 307 307 307 307 307 307 307 306 306 305 305 305 304 303 302 302 301 300 299 299 299 299 298 297 295 292 290 289 288 288 287 287 287 286 286 287 287 287 287 287 287
311 312 313 313 310 309 306 306 308 304 306 313 310 307 309 307 308 307 304 306 306 302 301 304 306 306 307 307 307 307 308 307 308 308 308 308 308 308 308 307 307 307 308 309 309 309 309 309 308 308 308 308 308 307 307 307 307 307 306 306 306 306 306 306 305 305 304 304 303 302 302 301 300 300 299 299 299 298 298 297 296 293 291 289 288 287 287 286 286 286 286 286 286 286 286 286 287
310 310 311 311 309 309 309 308 308 305 305 313 311 307 308 307 309 311 306 305 305 304 303 304 305 306 306 307 307 307 307 308 308 308 308 308 308 307 307 307 307 307 307 307 308 308 308 308 308 308 308 308 307 307 307 306 306 306 306 306 306 305 305 305 304 304 303 303 303 302 301 301 300 300 299 299 298 298 298 297 296 294 291 290 288 287 286 286 286 286 286 286 286 286 286 286 286
308 308 310 310 308 307 309 310 308 305 304 309 311 308 308 309 312 312 305 301 302 304 306 306 305 306 306 306 306 306 306 307 307 307 308 307 307 307 307 306 306 307 307 307 307 306 307 307 307 307 307 307 307 306 306 306 306 305 305 305 305 305 304 304 304 303 303 303 302 302 301 301 301 300 299 299 298 298 297 297 296 294 291 290 288 287 286 285 285 285 285 285 285 285 286 286 286
309 309 309 308 308 307 307 308 306 306 305 305 309 311 313 315 315 313 307 302 302 303 304 306 305 304 304 305 305 304 304 304 304 306 306 306 307 306 306 306 307 307 306 305 305 306 306 307 306 306 306 306 306 306 305 305 305 305 305 304 304 304 304 304 303 303 303 303 303 302 302 302 301 300 299 298 298 298 297 296 296 294 292 290 288 287 286 285 285 285 285 285 285 285 285 285 285
310 313 310 306 308 307 306 306 305 309 310 306 308 312 315 315 313 313 311 307 304 301 301 302 301 300 300 301 300 300 300 301 301 302 303 304 306 306 306 306 306 305 305 305 305 305 305 305 305 305 305 305 304 304 303 304 304 303 304 304 303 303 304 304 303 303 303 303 303 302 302 301 300 300 299 298 298 297 297 296 295 294 292 290 289 287 286 285 285 285 285 285 285 285 285 284 284
309 311 309 306 307 307 307 306 307 310 309 305 306 310 312 310 307 308 308 306 303 299 298 298 297 297 297 297 297 297 298 299 299 300 301 302 303 303 304 304 304 304 304 304 304 304 304 304 304 304 304 304 303 302 302 302 302 302 302 302 303 303 303 303 303 303 303 302 302 302 301 300 300 300 299 298 297 297 296 295 295 293 291 290 289 288 287 286 285 284 284 285 285 285 284 284 284
310 310 306 307 307 306 306 305 307 309 307 307 309 309 310 311 309 306 305 302 299 297 297 297 297 297 296 296 296 296 296 296 296 297 299 300 300 300 301 302 302 302 302 302 302 302 302 302 302 302 302 302 301 300 301 301 301 301 301 301 302 302 302 303 303 303 302 302 301 301 301 300 299 299 299 298 297 296 296 295 294 293 291 290 289 288 288 287 285 284 284 284 284 284 284 284 284
312 310 305 306 304 304 305 306 310 308 305 309 313 307 306 311 308 303 301 299 298 297 297 296 296 296 296 296 295 295 295 294 294 295 296 297 298 298 299 300 300 300 299 299 299 299 299 300 300 301 301 302 302 302 301 301 301 300 300 300 300 300 301 301 302 302 302 302 301 301 300 300 299 299 299 298 297 296 295 295 294 293 291 290 289 289 288 287 285 284 283 284 284 284 284 284 283
308 307 305 306 305 304 305 307 311 310 307 310 313 306 304 306 303 299 298 298 297 297 296 295 295 295 295 295 294 294 294 294 294 293 294 295 297 297 298 298 299 299 298 297 297 298 298 298 298 298 299 300 300 301 301 301 301 301 300 299 298 298 299 300 301 301 301 301 301 300 300 299 299 299 299 298 297 296 295 295 294 293 292 290 289 289 289 288 286 284 283 284 284 284 284 283 282
304 306 307 307 307 305 306 308 307 306 309 314 312 306 304 304 301 297 297 298 297 297 296 295 294 294 294 294 294 294 294 293 293 293 293 293 295 296 297 297 297 297 298 297 297 298 298 298 297 297 297 297 297 297 298 298 299 300 300 300 299 299 299 299 300 300 300 300 300 300 299 299 299 298 298 298 297 296 295 294 294 293 292 290 289 289 290 290 287 284 284 284 284 284 284 283 282
302 306 306 305 306 306 311 314 308 303 308 311 309 306 305 305 302 296 296 297 297 297 296 295 294 294 294 294 293 293 293 293 293 292 292 292 293 294 294 295 296 297 297 297 297 297 297 297 297 297 297 297 297 297 296 297 296 297 298 299 299 299 299 299 299 299 299 299 299 299 298 298 298 298 297 297 297 296 295 294 293 293 292 291 290 290 291 290 287 285 285 285 284 283 284 283 282
304 306 307 307 310 309 308 310 307 305 305 306 306 305 304 303 298 295 295 295 296 296 295 295 294 293 293 293 293 293 293 293 293 292 292 291 291 291 292 292 293 293 295 296 296 296 296 297 297 297 297 296 296 296 296 296 296 296 296 297 297 298 299 299 298 298 298 298 298 298 298 297 297 297 297 297 297 296 295 294 293 293 292 291 291 291 291 290 289 288 287 285 283 283 284 283 282
305 306 307 309 310 307 305 306 305 304 303 302 303 303 304 302 296 294 294 294 294 294 294 294 293 293 293 293 293 292 292 292 292 292 291 291 290 290 290 290 290 291 291 292 293 294 295 296 296 297 297 297 296 296 296 296 296 296 296 296 296 297 298 298 298 298 297 297 297 297 297 297 297 296 296 296 296 296 294 294 293 293 292 291 291 291 290 290 290 290 288 285 283 283 283 283 282
305 306 306 307 308 306 305 307 306 303 303 303 301 304 309 306 298 294 294 293 293 292 292 293 292 292 292 292 292 292 292 292 292 292 291 291 290 290 290 290 290 290 290 290 291 291 292 293 294 295 296 296 296 296 296 296 296 296 296 296 296 296 297 297 297 297 297 297 296 297 296 296 296 296 296 296 295 295 294 293 293 292 291 291 290 290 289 289 290 290 288 285 283 283 283 283 282
305 304 306 308 309 307 306 307 305 302 303 304 303 307 309 302 294 293 293 292 292 292 292 292 292 291 292 292 292 291 291 292 292 292 291 291 290 290 290 290 290 290 290 290 290 290 290 290 291 292 293 295 295 295 296 296 296 296 296 296 296 296 296 296 296 296 296 296 296 296 296 296 296 295 295 295 294 294 293 292 292 291 291 290 290 289 288 288 291 291 288 285 283 282 283 283 282
305 304 305 306 304 304 306 307 304 302 303 305 305 305 304 299 295 292 292 292 292 292 291 291 291 291 291 291 291 291 291 291 292 292 291 291 290 290 290 290 290 290 290 290 290 290 290 290 290 290 290 292 293 294 295 295 295 296 296 296 296 296 296 295 296 295 295 295 295 295 295 295 295 295 295 294 294 293 293 292 292 291 291 290 290 289 287 288 290 290 287 285 283 282 283 282 282
307 306 305 304 303 305 306 306 305 305 304 304 303 303 302 302 300 294 291 292 291 291 291 291 291 291 291 291 291 291 291 291 291 292 291 291 290 290 290 290 290 290 290 290 290 290 290 290 290 290 289 289 290 291 292 293 293 294 295 295 295 295 295 295 295 295 295 295 294 295 295 295 295 295 294 294 293 293 292 292 291 291 291 290 290 289 288 288 290 290 288 285 283 282 282 282 282
303 303 303 304 304 306 306 304 304 303 302 302 302 302 302 299 296 293 291 291 291 290 291 291 291 291 291 291 291 291 291 290 291 291 292 291 290 290 290 289 290 290 290 290 290 290 290 290 290 290 290 289 289 289 289 290 291 292 292 293 294 294 294 294 295 296 295 295 294 294 294 294 294 294 294 293 293 292 292 292 291 291 291 290 289 289 288 289 290 290 288 285 283 282 282 282 282
301 302 305 304 304 305 304 303 304 303 301 301 301 301 301 295 293 292 291 290 290 290 290 290 291 291 291 291 291 291 291 290 290 291 291 291 290 290 289 289 289 289 289 289 289 290 290 290 290 290 290 290 289 289 289 289 290 290 291 291 292 293 293 294 294 295 295 295 295 294 293 293 293 293 293 293 292 292 291 291 291 291 290 289 288 288 289 289 290 290 289 286 283 283 282 282 282
302 305 306 304 304 305 303 301 303 302 301 301 300 301 300 295 292 292 290 290 290 290 290 290 291 291 291 291 291 291 291 290 290 290 290 291 290 289 288 289 289 289 289 289 289 289 289 290 290 290 290 290 290 289 289 289 289 289 290 291 291 291 292 293 294 294 295 295 295 294 293 293 293 292 292 292 292 292 291 291 291 290 289 288 288 287 288 289 290 290 289 286 284 283 282 282 282
302 303 303 301 300 300 300 300 302 301 300 300 299 300 299 294 292 292 290 290 290 290 291 291 291 291 291 291 290 290 290 289 289 289 290 290 289 288 288 288 289 289 289 289 289 289 289 289 290 290 290 290 289 289 289 289 289 289 289 290 291 291 291 292 293 294 295 295 294 294 293 293 292 292 292 292 291 291 291 290 290 289 289 288 287 287 287 288 289 290 289 286 284 283 282 282 282
Wind_Speed
8 10 11 12 13 11 9 6 1 2 1 3 4 1 4 3 1 2 4 3 1 4 7 4 8 14 8 2 5 4 3 7 6 4 4 3 6 10 16 17 14 15 15 12 12 10 7 6 4 4 3 4 5 4 4 3 3 3 4 5 6 7 8 9 8 7 6 5 6 5 5 4 3 2 2 3 4 5 7 8 8 8 7 5 5 4 3 0 3 4 4 5 6 7 7 7 8
7 9 10 11 12 9 6 4 1 2 1 6 4 4 4 3 1 4 7 6 3 2 6 6 8 12 6 3 2 2 6 10 10 7 4 4 8 12 17 16 14 15 14 12 10 8 6 4 3 3 3 4 4 4 3 3 3 3 3 4 5 6 7 8 8 8 7 6 7 5 4 3 2 3 3 4 5 7 8 9 9 9 9 7 7 7 7 4 2 3 5 5 6 6 7 7 7
6 8 9 10 9 5 3 2 1 1 2 7 5 3 2 1 5 8 9 8 4 3 6 7 7 8 6 3 3 3 6 10 14 13 7 8 9 10 15 16 15 14 12 11 9 7 5 3 3 3 3 3 4 3 2 2 3 3 3 4 4 5 5 6 6 6 6 6 6 4 3 3 3 4 5 5 7 8 9 10 10 10 10 9 9 9 9 8 6 4 5 5 5 6 7 7 7
5 7 6 6 6 2 3 1 1 3 4 6 4 5 3 4 8 9 7 6 4 5 7 6 4 6 7 7 5 4 9 11 14 15 9 9 8 8 13 16 18 16 13 12 9 7 5 5 3 2 3 3 3 3 1 2 2 2 2 3 3 3 3 4 4 4 5 5 5 4 4 4 5 6 6 7 7 8 9 10 11 11 11 10 10 11 11 11 10 9 7 7 6 5 6 7 7
6 7 4 4 4 1 2 0 2 3 6 3 2 5 5 7 8 8 5 3 6 7 6 6 3 4 7 10 7 3 7 9 12 15 13 10 8 9 13 16 18 17 15 13 10 8 6 5 4 3 3 3 2 2 1 1 1 2 1 2 2 2 2 2 2 3 3 4 5 5 4 5 6 6 7 7 8 8 9 10 11 11 11 11 11 12 13 13 12 11 10 9 8 7 7 7 9
7 5 1 2 2 1 1 2 2 3 6 4 3 6 6 7 7 6 2 2 6 7 6 6 4 3 5 10 12 10 8 5 7 11 14 14 11 11 14 16 17 17 14 13 11 9 7 6 4 3 3 2 2 1 1 1 1 1 1 2 1 1 1 1 1 1 2 2 3 4 4 5 6 6 7 7 8 8 9 10 11 11 11 11 12 13 14 14 13 12 11 10 10 9 9 9 11
5 4 1 0 1 1 2 3 4 5 5 5 4 5 7 7 6 4 2 2 5 7 8 9 5 2 5 6 9 16 16 13 8 6 8 13 14 13 15 16 16 16 14 14 12 9 8 7 5 5 3 3 2 2 3 3 3 3 3 3 2 2 1 1 1 0 1 1 2 3 4 5 6 6 7 8 8 8 9 10 11 11 11 12 12 13 14 15 14 13 12 11 11 11 11 11 12
1 3 0 1 0 2 1 3 4 4 4 4 4 6 8 7 5 5 3 4 3 5 7 11 7 1 6 6 7 12 15 19 18 13 9 10 14 15 15 16 17 16 15 14 12 10 9 8 6 6 4 4 3 3 5 6 6 6 5 5 4 3 3 2 1 1 1 2 2 3 4 4 6 7 8 8 9 9 9 10 11 11 11 11 12 13 14 15 14 13 13 12 11 11 12 12 12
0 2 0 1 1 2 2 4 5 4 5 6 5 8 11 9 7 6 5 5 3 3 5 10 8 4 5 6 12 16 15 16 18 18 14 12 13 15 15 16 17 16 15 14 12 11 10 9 8 7 6 5 5 4 5 6 7 7 7 7 6 5 4 4 3 3 3 3 4 4 5 5 6 7 9 9 10 10 10 11 11 11 11 12 12 13 14 15 14 14 13 12 12 12 12 12 12
0 1 1 1 1 3 5 4 4 3 6 5 6 12 13 9 8 8 5 5 6 3 4 8 10 11 7 7 14 16 16 15 16 18 17 15 13 15 15 15 17 16 15 14 13 12 11 10 9 9 8 7 7 5 5 5 6 7 7 7 6 6 5 4 3 3 3 4 5 5 6 6 6 7 9 10 11 11 12 12 12 12 12 13 13 13 14 14 14 14 13 13 12 12 13 13 13
0 3 2 1 1 3 5 4 5 5 6 5 8 14 15 10 6 6 6 6 8 6 4 5 7 14 10 9 17 18 17 16 15 16 16 16 15 15 15 15 17 17 16 14 14 13 12 12 11 11 10 9 8 7 7 6 7 7 8 8 7 6 5 4 3 2 2 3 4 5 6 6 7 7 8 10 11 12 12 13 13 13 14 14 14 14 14 14 14 14 14 13 13 13 13 13 14
1 2 3 1 2 4 4 4 6 7 7 5 6 8 8 9 6 4 7 7 6 6 10 11 5 6 5 6 15 19 19 19 17 15 15 16 16 15 15 16 17 17 16 15 15 15 14 14 13 12 12 11 11 10 9 8 8 8 8 8 8 7 6 5 4 2 1 0 2 3 5 6 7 8 9 10 10 11 12 12 13 14 14 15 15 15 14 14 14 14 14 14 14 14 14 14 14
1 2 4 1 3 3 3 3 5 6 7 5 4 4 3 8 8 8 6 7 7 4 10 16 12 4 4 7 13 19 19 19 16 15 16 15 15 15 16 17 17 18 18 17 18 17 17 16 15 14 14 13 13 13 11 10 9 8 9 9 9 8 7 6 5 4 3 2 2 2 3 5 6 8 9 10 11 11 11 12 13 13 14 15 15 15 15 15 15 15 14 14 15 15 15 16 15
0 4 4 1 1 0 2 3 4 4 6 5 3 4 6 7 8 10 6 5 10 11 10 13 15 8 6 8 14 21 18 15 16 16 16 15 16 17 18 19 19 20 20 20 20 19 19 18 17 16 16 15 15 15 14 12 11 10 9 9 9 9 9 8 7 6 5 4 4 3 3 4 5 7 9 10 12 12 12 12 13 13 14 15 16 16 16 16 15 16 15 15 16 16 16 16 15
1 3 4 1 2 2 3 3 3 3 6 5 4 3 7 11 8 9 11 10 13 17 13 9 13 8 4 7 9 12 8 8 13 16 17 17 18 19 20 21 22 22 22 22 22 22 21 20 19 18 18 17 17 17 16 15 13 12 11 10 10 9 9 9 9 8 7 7 6 5 5 4 5 6 8 10 12 13 13 14 14 14 15 16 16 17 17 17 16 16 16 17 17 18 17 15 15
1 2 4 1 2 2 3 3 1 2 6 5 4 3 4 11 11 10 13 13 15 16 14 13 16 14 12 15 12 8 6 7 10 15 19 20 21 23 23 24 24 25 25 25 24 24 23 22 21 20 21 19 19 19 18 18 16 15 13 12 11 10 10 10 10 10 9 8 7 7 6 5 6 6 7 9 10 12 13 14 15 15 16 17 18 18 18 17 18 17 18 18 19 19 17 16 16
2 2 2 2 2 2 3 4 3 2 6 5 4 5 4 8 10 14 15 15 19 19 17 18 21 24 26 25 18 12 11 10 11 16 21 23 25 26 27 28 28 28 28 28 27 26 25 25 24 23 23 21 21 20 21 20 19 17 16 14 13 12 11 11 11 11 10 9 8 8 7 7 7 7 8 9 10 11 12 14 15 15 17 18 19 18 18 18 18 19 19 19 20 19 18 17 18
2 2 1 3 3 4 5 6 6 3 4 5 4 5 7 7 8 10 12 14 19 21 23 24 25 29 32 31 26 22 19 16 15 17 22 26 28 29 30 31 31 31 31 30 30 29 28 27 26 25 24 23 22 22 23 23 22 20 18 17 16 15 14 13 12 12 11 10 10 9 8 9 9 9 10 11 12 12 12 13 14 16 17 18 18 18 18 19 19 20 19 20 20 19 18 18 18
2 3 1 4 5 5 6 6 5 4 5 7 8 8 8 10 9 6 7 10 11 12 20 23 25 32 34 33 32 31 28 24 22 20 22 26 28 31 32 32 33 33 32 32 31 30 30 29 29 27 25 24 24 24 25 25 25 23 21 19 18 17 16 15 14 13 13 12 11 10 10 10 11 11 12 13 13 13 13 14 14 16 17 17 18 18 18 19 19 19 19 19 19 18 18 18 18
2 2 2 6 6 5 7 8 9 9 9 7 9 9 7 14 13 6 5 9 9 9 17 16 22 32 32 31 32 34 33 31 29 26 26 27 29 31 32 33 33 33 32 30 30 30 30 30 30 29 26 25 26 26 27 27 27 26 25 23 21 20 19 18 16 15 14 13 13 12 11 11 12 12 13 14 14 14 14 14 15 15 16 17 17 17 18 19 19 18 18 19 18 18 18 18 18
2 4 4 6 4 4 8 10 11 11 8 8 10 7 8 16 13 10 6 7 8 14 25 22 24 31 28 26 27 32 35 33 32 31 30 31 31 32 33 34 33 32 30 30 31 31 30 30 30 28 27 27 27 28 28 29 29 29 28 26 24 22 21 20 18 17 16 15 14 14 13 13 13 14 14 15 14 14 15 15 15 15 16 17 17 17 17 18 18 18 18 18 18 18 18 18 18
2 4 7 7 3 3 10 8 8 9 8 10 10 7 10 13 10 14 11 6 12 22 30 27 25 27 26 23 23 27 32 34 34 34 34 34 34 35 35 35 35 34 33 33 33 32 31 30 30 29 28 28 29 29 29 30 31 31 31 29 27 25 24 22 21 20 18 17 16 16 15 15 15 15 15 15 15 15 15 16 16 16 17 17 17 17 17 17 17 17 17 18 18 18 18 18 18
3 5 6 7 4 5 11 10 9 11 9 9 8 8 11 10 9 12 14 19 27 35 35 32 32 32 28 23 22 25 29 32 35 36 37 37 37 37 37 36 36 35 35 34 33 33 32 32 31 30 29 30 30 30 31 31 32 33 33 32 30 28 26 24 23 22 20 18 18 18 17 17 16 16 16 16 16 16 16 16 16 17 17 18 18 17 18 17 17 17 17 18 18 19 18 18 18
3 4 5 8 7 8 13 15 16 15 13 15 13 11 11 10 9 7 15 31 37 37 36 35 35 33 31 29 28 28 28 30 33 35 36 37 38 38 37 37 36 35 35 34 34 33 33 33 32 32 31 31 31 31 32 32 33 34 34 34 34 32 29 27 26 23 21 20 20 20 19 19 18 18 18 17 17 17 17 17 17 18 18 19 18 18 18 18 18 18 18 18 19 19 19 19 18
3 3 5 7 10 13 18 20 21 19 17 20 15 12 17 18 12 8 22 37 35 32 33 31 27 25 27 28 29 30 31 32 33 34 35 36 38 38 38 38 37 37 37 36 35 34 34 33 33 33 33 32 31 31 32 33 33 34 35 35 35 34 32 29 27 25 24 23 22 22 22 21 21 20 19 19 19 18 18 18 18 19 19 19 19 19 19 19 19 18 19 19 19 20 20 19 18
2 4 8 9 14 19 19 17 16 15 14 14 10 11 18 17 9 12 28 32 25 25 28 28 26 24 25 26 26 27 30 32 33 35 35 35 36 37 38 39 39 39 39 38 36 36 35 34 35 34 34 33 32 32 33 33 33 34 34 35 35 35 34 31 29 28 26 25 25 25 24 23 23 22 21 20 21 20 19 20 20 20 20 20 20 19 19 19 19 19 19 19 20 20 20 20 19
6 9 11 11 16 18 12 10 13 13 10 8 7 11 16 12 2 8 26 27 21 25 28 29 30 29 30 30 28 27 28 30 31 34 36 35 36 38 39 39 41 40 40 39 38 37 36 35 35 34 35 34 34 34 33 33 33 33 33 34 35 35 35 33 31 30 29 28 27 26 25 25 25 24 23 23 23 22 21 21 20 21 21 21 21 20 20 19 19 19 20 20 21 21 21 20 19
9 9 11 11 12 11 6 10 14 12 6 5 6 12 14 6 3 12 24 27 25 28 31 32 31 31 31 31 31 30 30 30 30 32 35 36 37 38 38 39 40 40 40 39 37 36 37 36 34 34 35 35 35 35 34 33 33 32 33 34 34 35 35 35 34 32 31 30 29 28 27 27 26 26 25 25 24 24 23 22 22 22 22 22 22 21 21 20 20 20 20 21 21 21 21 20 20
7 5 6 9 11 7 6 10 11 8 4 6 6 9 11 1 7 19 24 25 26 28 31 32 32 31 29 28 28 27 27 27 28 30 32 33 36 38 38 37 37 39 39 37 36 37 37 35 34 34 34 35 34 34 34 33 33 32 33 33 34 35 36 36 35 34 33 32 31 30 29 28 28 27 27 26 26 26 25 23 23 23 23 23 23 22 22 21 21 21 21 21 21 22 21 21 20
5 4 3 5 10 5 6 11 11 9 3 5 5 4 11 7 12 21 18 18 24 29 33 32 30 28 25 23 22 21 20 20 23 25 27 28 31 35 36 34 34 36 35 36 37 36 34 34 35 34 34 34 33 33 34 33 33 33 33 34 34 35 36 37 36 35 35 34 33 32 31 30 30 29 28 28 28 28 27 25 24 24 24 24 24 23 23 22 22 22 21 21 22 22 22 21 20
4 4 3 4 5 5 9 11 8 8 4 3 4 2 9 12 20 25 16 16 23 27 33 31 26 23 20 18 17 17 15 13 16 17 20 23 25 30 32 32 31 31 31 33 33 31 32 33 33 31 30 31 32 33 33 32 32 33 33 34 35 36 36 37 36 36 36 36 35 34 33 32 32 31 30 29 29 30 29 27 26 25 25 26 26 24 23 23 22 22 22 22 22 22 22 21 21
4 4 4 3 2 5 11 8 2 3 5 3 3 3 8 10 21 31 26 24 23 22 27 26 20 17 16 16 16 16 14 11 13 14 16 19 21 25 28 30 31 30 29 29 29 29 31 31 30 28 28 29 30 30 31 31 32 33 33 34 35 37 38 38 38 38 38 37 37 36 35 33 33 33 31 31 31 31 31 29 27 26 27 28 27 26 25 24 23 22 22 22 22 22 22 22 21
4 3 3 5 3 5 9 5 3 4 4 4 2 3 7 8 18 34 35 30 24 20 22 20 15 14 15 16 16 17 16 14 13 12 13 15 18 21 23 26 29 30 29 29 30 30 30 29 28 28 28 27 27 28 30 31 32 33 33 35 36 38 39 39 39 40 40 39 38 38 36 35 34 34 32 32 32 32 32 30 28 27 28 29 28 27 26 25 24 23 23 22 22 22 22 22 22
4 3 2 4 4 3 6 6 4 7 4 3 4 4 9 11 16 31 33 27 22 19 20 19 15 14 13 13 13 14 15 15 14 12 11 12 13 15 16 19 22 25 27 28 29 30 30 29 28 28 28 27 26 28 30 31 33 34 36 37 38 40 40 40 41 41 41 41 40 39 38 37 36 35 33 33 33 33 33 31 30 29 29 30 30 29 27 26 25 24 23 23 22 22 22 22 22
4 4 3 4 4 3 5 6 5 8 5 5 6 5 12 14 13 22 27 22 18 17 17 17 15 14 13 12 13 13 13 14 14 12 11 11 11 11 12 13 15 18 21 23 25 26 28 28 27 27 26 25 25 27 29 31 33 35 36 38 40 41 41 41 42 42 42 42 42 40 39 38 37 36 35 34 34 34 34 33 32 31 31 32 31 30 29 27 26 24 23 23 23 22 22 22 22
6 5 3 4 6 5 7 8 4 6 7 7 6 6 10 13 13 16 22 22 18 17 16 15 14 13 12 13 14 14 15 15 14 13 12 10 9 9 8 7 8 9 11 13 15 19 22 24 25 23 21 20 21 23 25 28 31 33 35 38 39 39 39 41 42 43 43 43 42 41 40 39 38 37 36 35 36 35 35 35 33 32 32 33 33 32 30 28 26 24 23 23 24 23 23 22 22
4 2 3 5 6 7 8 7 5 5 5 7 5 5 9 13 13 13 17 19 14 14 16 15 14 12 12 13 14 15 16 15 15 15 14 13 13 11 10 9 8 8 8 8 9 11 13 14 16 15 14 16 18 20 21 23 26 29 32 34 34 35 37 39 41 41 42 42 42 41 40 39 38 37 37 37 37 37 36 36 35 34 33 34 34 32 30 28 26 25 24 25 24 23 23 22 22
1 2 4 5 3 8 10 5 4 5 5 5 3 6 12 13 12 11 12 12 8 10 13 13 11 10 11 12 13 14 14 14 13 13 13 13 13 12 11 10 9 7 6 6 7 7 8 9 11 12 13 16 17 18 20 22 23 26 28 30 32 34 36 38 39 39 40 40 40 40 39 38 37 37 37 37 37 38 37 37 37 36 34 34 34 33 31 29 28 27 26 25 24 23 23 22 22
0 1 2 5 3 6 10 3 1 5 3 5 6 7 12 13 11 10 8 6 7 11 11 11 11 9 10 11 11 12 12 12 12 13 14 13 13 12 12 12 10 8 6 6 6 6 7 9 11 13 15 16 17 19 21 22 23 25 27 30 33 35 37 38 39 39 39 39 39 39 38 37 36 36 36 37 37 38 38 38 38 36 35 34 34 34 32 30 29 28 27 25 24 24 23 22 22
1 1 2 5 5 3 5 3 5 8 2 4 7 8 9 8 7 7 5 4 9 13 10 8 8 9 10 10 9 11 11 12 12 11 12 14 16 16 16 15 14 13 11 9 8 8 9 9 11 12 14 15 17 19 20 22 23 25 27 30 32 34 37 38 39 40 40 41 41 41 40 38 36 35 36 37 38 39 39 39 38 37 36 34 33 34 33 31 29 29 27 26 25 24 23 22 22
3 4 2 6 7 2 5 6 9 9 2 1 6 7 6 4 6 6 4 6 12 14 11 13 19 24 24 22 22 26 29 30 28 23 18 16 16 16 17 17 15 13 10 8 7 7 8 8 9 11 13 15 17 18 19 21 22 24 25 28 30 32 35 37 39 39 39 40 41 40 40 38 35 32 34 37 37 39 40 39 39 38 37 35 33 33 33 31 30 29 28 26 25 25 23 22 22
5 4 5 7 8 7 7 7 8 6 4 3 5 5 6 4 5 6 6 8 13 17 19 26 38 43 43 40 40 46 49 49 47 43 39 30 22 18 16 15 12 8 5 5 5 6 7 7 9 11 13 14 14 15 17 18 19 20 23 25 26 28 31 34 35 35 36 37 39 39 39 38 35 32 34 35 37 38 40 39 39 39 38 36 34 32 32 32 31 30 29 28 26 25 24 24 23
6 3 4 5 7 8 8 6 4 3 4 4 4 3 5 4 4 5 7 8 13 20 22 29 38 42 44 45 47 51 53 53 51 50 49 45 39 35 30 22 15 10 8 7 7 8 10 12 13 13 14 14 15 15 16 16 17 19 21 23 25 26 29 31 31 32 35 36 38 40 40 39 37 35 34 35 36 37 39 40 39 39 38 36 33 32 33 33 32 30 29 29 27 25 25 25 23
6 3 2 8 9 8 7 3 0 2 4 5 3 4 3 5 4 5 9 11 16 19 18 22 31 37 41 44 46 50 51 53 54 54 53 49 44 45 45 37 28 21 17 16 16 16 16 16 16 16 17 17 17 17 16 17 18 20 22 24 26 27 28 29 29 32 35 36 38 40 40 39 38 37 36 35 35 37 38 40 39 39 39 37 34 33 33 32 31 31 30 29 28 27 26 25 23
7 5 6 9 7 5 4 2 2 1 3 5 4 1 1 5 5 6 12 14 16 17 16 17 24 32 36 40 44 47 48 49 52 53 55 55 49 46 45 39 31 27 27 28 27 26 26 23 20 18 17 16 16 17 18 19 20 21 23 25 27 27 27 27 27 30 33 36 39 40 40 40 39 38 37 35 35 36 37 39 39 39 39 38 35 32 31 32 31 31 31 30 29 28 27 25 24
8 7 7 4 1 1 0 2 1 2 2 4 6 1 1 4 5 9 11 12 13 13 11 12 20 28 32 36 41 44 46 48 50 52 53 54 52 50 47 42 36 31 29 29 29 31 32 31 29 27 25 23 20 20 20 21 22 23 24 26 26 26 25 24 25 27 31 35 38 40 40 39 38 38 37 35 35 35 36 38 39 39 40 38 35 32 31 32 32 31 31 30 30 29 27 26 24
8 7 7 5 4 3 2 2 2 3 2 5 6 2 1 2 4 8 7 5 7 9 9 12 19 27 31 33 37 40 42 44 46 50 54 53 51 49 48 46 44 40 36 34 32 32 30 30 30 30 31 32 30 29 27 25 23 24 25 27 27 26 25 23 23 25 27 32 36 38 39 39 39 38 36 35 35 35 36 38 39 39 40 39 36 33 33 32 31 31 31 31 30 30 28 26 25
6 5 5 7 6 4 4 4 4 2 4 7 5 3 2 2 1 5 4 4 6 7 10 13 17 24 29 32 35 37 39 41 44 47 50 52 52 51 50 47 46 45 42 41 40 39 37 35 33 31 30 31 33 36 36 34 31 27 26 26 28 28 27 25 25 24 26 29 33 36 37 39 40 39 38 36 35 34 35 37 39 39 41 40 37 35 34 32 31 32 32 31 31 30 29 27 27
6 5 6 6 5 5 5 5 3 1 6 5 4 2 1 2 2 1 3 4 7 8 10 14 18 24 28 31 33 36 38 40 42 43 45 47 48 49 49 48 48 47 45 43 42 41 40 38 38 36 34 32 33 36 37 38 37 35 31 29 28 28 28 28 27 27 27 29 32 34 36 38 39 40 39 37 35 33 34 36 38 39 40 40 39 37 35 33 32 32 32 31 31 31 29 28 27
6 3 3 3 3 5 6 5 4 5 7 5 4 2 3 2 4 1 2 5 8 11 15 18 22 26 28 31 35 38 41 42 42 42 43 44 45 45 45 46 48 49 48 46 45 44 42 39 37 37 36 35 35 36 37 38 37 36 35 34 31 29 29 29 28 28 28 29 31 33 35 36 37 39 39 37 34 33 34 35 36 37 39 40 40 39 36 33 32 31 30 30 31 31 30 29 27
4 2 3 2 1 1 5 4 4 8 9 7 2 1 4 2 4 3 2 4 10 16 19 21 25 28 29 31 36 40 43 43 42 42 42 42 42 43 44 44 46 47 48 48 48 47 46 44 41 39 37 36 36 35 35 36 36 35 34 34 34 32 29 28 29 28 28 29 30 32 33 33 34 35 36 36 35 35 35 34 35 37 38 40 41 40 38 35 31 29 29 29 31 32 31 30 28
2 2 2 2 2 3 2 5 5 5 7 7 2 2 3 4 6 3 3 6 15 23 27 28 31 33 32 32 36 40 41 41 41 40 42 43 42 43 43 44 45 46 47 47 47 48 48 47 45 43 41 39 38 36 34 33 33 34 33 32 33 35 34 30 28 28 27 27 29 29 30 30 30 32 33 35 36 36 35 34 35 36 37 39 40 40 39 36 31 29 29 29 30 32 32 30 28
2 1 2 3 4 5 1 5 3 1 4 5 2 4 4 3 3 8 15 15 20 25 28 32 34 36 36 35 37 41 42 42 41 39 39 41 42 43 44 45 46 46 47 47 46 46 46 46 46 45 43 41 40 39 37 36 34 33 32 31 31 34 37 35 30 28 26 26 27 28 28 28 28 29 31 33 35 35 35 35 35 36 36 37 37 38 39 37 32 30 30 29 29 31 31 30 28
1 2 5 3 1 3 2 2 4 4 5 5 3 8 7 1 2 8 16 17 18 19 21 27 33 34 34 34 37 40 42 42 40 38 38 39 41 43 45 47 47 46 46 46 46 45 44 44 44 44 44 43 42 41 40 40 39 37 35 32 32 33 36 36 33 30 27 26 26 26 26 26 26 27 29 32 34 35 35 35 36 36 35 35 36 36 37 37 34 31 30 29 28 30 31 30 28
2 3 4 1 2 3 2 1 3 5 8 6 5 11 7 1 2 7 13 16 17 17 17 20 25 29 29 30 31 35 37 39 39 39 39 39 39 41 44 47 47 46 46 46 46 45 44 44 44 44 44 43 43 43 41 41 41 41 39 37 36 35 37 36 33 31 29 27 26 25 24 24 24 24 27 29 33 34 35 35 36 35 35 36 36 35 36 37 35 33 31 29 29 30 31 30 29
1 3 3 1 2 4 3 2 1 3 8 8 7 9 4 2 1 4 9 15 17 17 16 16 22 28 29 27 28 31 34 36 38 38 39 39 38 41 44 46 46 46 46 46 46 46 45 44 44 45 45 45 44 43 42 42 41 42 42 40 39 37 37 37 34 31 29 28 26 24 23 22 22 23 25 27 30 33 34 34 35 35 35 36 36 36 36 36 36 34 31 30 29 29 31 30 29
3 4 4 5 2 1 2 2 1 1 7 6 6 9 4 1 1 2 8 14 15 16 16 15 22 29 30 29 30 32 34 38 39 39 39 37 36 42 48 47 46 45 45 45 45 45 45 44 44 44 44 45 45 45 44 43 42 42 42 42 40 38 36 36 35 32 30 28 25 24 22 21 21 23 24 26 28 30 32 33 34 35 35 36 36 37 37 37 36 35 32 30 29 29 30 30 30
1 2 4 6 4 4 5 5 2 2 5 6 8 11 4 2 1 3 8 12 13 15 16 17 25 30 31 31 33 35 39 43 44 43 40 35 36 45 50 48 47 46 45 45 44 43 43 43 43 43 43 43 44 44 45 44 43 42 42 41 40 38 36 35 35 33 31 29 26 23 21 20 21 21 23 25 27 28 30 32 33 34 35 35 36 38 39 38 37 35 33 31 30 30 30 30 30
Wind_Direction
202 196 190 189 188 180 176 159 181 300 77 260 250 215 256 245 202 249 272 263 276 237 200 191 157 158 157 184 211 236 224 183 176 170 217 202 146 163 178 189 183 172 175 171 172 178 190 206 234 262 283 269 265 270 271 273 262 252 234 225 221 213 206 207 199 194 199 183 181 189 186 181 192 230 281 306 314 310 307 305 304 303 302 296 280 243 210 96 50 43 38 38 31 34 28 25 27
199 188 181 181 179 175 181 152 198 298 347 270 246 176 257 314 307 241 232 215 213 206 186 192 174 182 212 267 251 292 254 224 216 219 231 178 155 164 177 188 185 177 175 170 173 180 190 210 247 281 286 271 275 273 266 269 260 254 237 226 222 221 215 213 206 202 203 195 200 202 197 201 220 267 305 313 313 308 306 304 303 304 300 295 285 266 251 260 327 30 36 34 33 32 28 26 18
192 178 171 175 172 170 162 134 208 176 217 257 253 217 261 288 241 242 236 224 219 166 176 186 182 205 227 262 242 220 246 234 230 234 234 206 189 181 184 184 178 177 175 172 177 184 192 216 251 275 280 281 280 279 267 258 250 241 227 223 219 222 215 213 217 215 215 210 218 232 226 249 276 293 310 312 312 308 304 304 304 305 302 296 288 278 271 271 280 323 357 2 17 23 23 19 359
172 158 152 163 162 152 104 119 178 144 221 247 269 266 231 215 237 251 265 250 214 175 180 180 192 225 219 236 245 245 252 241 236 234 234 231 218 206 194 181 177 179 177 177 184 191 198 216 241 254 265 288 285 283 271 249 244 230 215 210 210 217 216 216 227 228 232 229 243 273 274 282 298 302 308 312 312 307 303 303 304 304 302 297 289 282 279 278 282 298 312 317 333 351 4 2 345
149 141 131 155 155 176 102 146 138 159 226 202 250 266 233 221 238 260 287 250 199 184 187 184 212 247 230 241 241 245 252 242 246 237 236 240 219 204 198 187 183 184 181 181 189 196 204 217 225 236 267 287 277 279 259 232 218 209 196 187 189 197 209 220 236 236 245 250 264 287 299 298 304 305 308 313 310 307 302 301 302 302 299 295 289 283 281 281 283 289 294 300 307 314 330 335 326
144 149 129 170 178 273 129 238 210 226 236 169 227 259 248 236 234 252 259 220 204 199 208 205 229 290 266 253 238 239 248 246 256 244 242 242 228 209 201 196 189 187 184 185 194 198 206 214 216 233 261 263 253 227 147 153 149 145 142 141 153 162 183 205 230 250 256 265 281 296 305 306 307 308 308 309 307 304 300 298 298 297 295 291 287 283 280 279 280 283 286 291 296 298 305 308 310
144 190 282 215 272 5 145 238 232 244 251 180 215 255 263 260 231 224 207 227 221 219 225 226 233 319 275 259 247 247 245 243 248 253 246 240 234 220 207 203 194 189 187 191 199 201 206 210 216 232 239 228 215 167 136 127 125 114 113 111 120 129 142 163 181 250 288 292 300 307 310 311 309 309 308 307 304 299 295 292 291 290 288 285 282 279 277 276 277 280 282 286 288 291 295 298 302
116 224 294 105 303 3 166 263 254 226 256 232 234 252 268 281 229 193 192 211 225 226 223 226 216 207 262 251 249 252 246 244 244 245 244 237 233 225 215 206 199 194 193 198 203 204 208 211 219 227 219 213 203 170 139 128 123 113 112 107 107 107 102 95 62 39 9 349 339 333 329 324 317 312 310 308 304 299 292 286 284 281 278 276 275 274 273 273 275 278 280 283 285 287 290 292 297
334 242 229 99 234 331 300 281 277 237 261 268 266 260 270 282 234 198 205 226 238 239 234 224 198 194 273 265 252 258 257 253 246 242 241 239 234 227 222 213 207 202 201 205 208 208 210 216 223 222 212 209 205 182 153 140 133 125 121 114 112 106 98 88 69 48 29 13 4 356 346 338 327 317 313 312 305 301 294 286 282 277 273 270 269 268 269 271 274 276 279 281 283 285 286 290 294
359 27 137 102 98 310 300 275 274 260 257 264 279 274 277 272 230 210 209 240 239 242 265 220 204 224 263 289 262 262 260 256 247 239 238 236 233 228 226 219 213 208 210 214 214 212 215 223 225 221 216 213 211 204 187 167 153 143 136 130 127 121 114 103 90 65 43 25 14 7 358 348 336 325 316 313 307 303 298 291 286 280 274 269 266 266 267 269 272 274 277 278 280 281 284 288 291
31 29 97 116 66 267 267 265 279 268 270 305 293 277 272 249 216 221 220 255 247 233 238 185 210 238 249 280 264 263 260 256 250 243 243 237 232 230 227 221 215 211 215 219 220 218 221 227 227 225 221 218 219 220 214 199 180 164 154 150 146 142 141 134 127 107 64 29 15 9 1 353 341 331 321 315 309 305 301 295 289 283 276 271 267 265 265 268 271 273 275 277 278 280 283 285 287
307 12 68 131 200 227 231 252 278 281 295 315 287 280 263 213 186 225 216 239 248 237 234 205 213 238 220 266 264 264 261 256 255 248 243 238 236 234 230 225 220 218 216 218 223 224 227 231 230 230 226 224 224 226 226 215 202 185 173 166 164 163 161 160 162 164 162 359 353 353 352 349 342 334 326 319 312 307 301 294 287 281 276 271 268 266 265 266 269 271 274 276 276 278 280 282 285
308 136 87 181 200 205 226 255 281 301 303 273 261 293 241 193 203 234 211 227 235 235 251 230 223 228 227 258 270 268 266 262 254 242 238 238 239 235 231 230 227 224 218 218 224 228 231 233 233 233 231 229 227 228 230 225 218 206 191 182 178 177 176 178 181 189 203 223 261 299 321 329 334 332 329 323 316 310 301 292 284 278 273 269 268 265 265 265 267 269 272 273 273 275 275 279 285
288 161 114 242 252 153 227 268 289 295 284 262 287 289 219 209 232 242 218 230 242 231 257 249 223 228 258 256 270 270 273 269 248 237 233 232 235 233 233 232 230 228 224 223 226 231 233 233 234 234 234 232 230 229 232 233 229 222 210 200 193 190 189 189 193 199 210 221 235 253 276 299 314 321 325 324 320 314 305 295 286 278 271 267 267 264 264 266 266 269 270 270 271 273 274 280 286
227 165 105 169 310 328 235 237 273 273 266 255 297 291 220 233 244 250 232 230 258 250 256 259 214 215 250 218 249 269 279 262 240 233 227 225 229 230 233 232 232 230 228 228 228 231 233 234 234 234 235 235 233 231 234 238 236 231 225 218 211 205 202 200 203 207 213 223 232 240 253 272 290 303 312 317 319 317 308 299 290 281 273 271 268 266 268 270 270 271 270 270 273 275 278 284 286
222 154 76 15 272 286 241 216 268 286 261 245 267 273 235 247 238 247 251 239 262 263 249 241 215 218 237 229 242 268 273 261 237 228 224 223 225 226 229 230 231 231 231 232 230 232 232 233 235 234 236 237 235 233 236 240 240 238 234 231 227 221 216 212 212 214 217 224 233 240 248 258 271 283 291 299 308 311 305 298 291 283 277 274 271 271 272 273 273 273 273 273 275 279 285 287 287
217 121 74 295 237 224 228 208 208 216 261 271 268 236 228 270 243 241 261 251 254 260 251 244 234 236 245 248 254 264 270 270 247 227 221 221 222 222 224 225 228 230 232 233 233 233 232 234 236 237 237 238 238 236 237 240 243 242 240 239 237 234 229 225 222 221 224 227 234 241 246 251 259 267 271 277 287 294 294 292 288 282 278 275 274 276 275 274 273 273 275 277 279 283 286 285 287
175 111 141 252 210 207 199 192 207 185 263 272 276 248 220 265 264 248 266 255 251 258 256 249 246 247 251 255 256 258 262 266 258 236 225 223 221 222 223 226 229 232 235 235 236 234 233 236 238 238 238 239 240 239 240 242 245 246 245 243 242 241 237 234 232 229 230 231 235 242 245 248 254 258 260 265 272 277 279 284 284 280 277 275 276 276 275 273 273 274 275 278 280 283 283 282 283
160 122 167 242 207 216 210 200 216 210 270 271 284 282 232 251 267 258 265 259 259 262 261 252 247 251 253 257 255 253 256 257 258 248 236 231 227 227 228 229 232 236 238 239 241 240 239 238 238 239 241 242 243 243 243 244 246 248 250 247 245 244 242 240 238 237 238 237 238 243 245 247 253 256 258 260 265 268 270 277 280 280 279 276 276 274 273 271 272 274 275 277 278 279 279 279 279
197 148 241 248 216 240 244 237 246 249 272 283 292 292 249 261 265 250 258 283 285 254 258 249 241 253 260 264 257 250 251 252 254 251 245 241 239 238 236 236 238 242 245 246 247 246 244 242 241 241 242 244 247 247 246 246 247 249 251 250 249 248 246 245 243 244 244 243 244 247 247 248 253 257 259 260 262 265 267 273 277 281 281 278 276 273 271 271 272 274 274 275 276 277 277 277 278
201 161 214 236 196 266 269 259 263 263 273 279 288 305 285 281 269 243 256 304 286 254 261 257 249 262 272 275 267 254 249 249 250 250 248 246 245 244 244 246 248 252 253 251 250 249 249 248 247 246 245 246 249 250 249 249 249 249 251 251 251 250 249 249 248 249 248 248 249 251 250 249 253 257 260 261 262 264 266 270 274 279 281 279 276 273 272 272 273 273 273 274 275 276 277 278 279
247 216 236 251 191 262 287 289 279 271 275 279 287 295 286 291 272 244 241 244 258 271 276 274 272 277 281 281 277 264 253 249 249 249 249 248 247 246 248 250 251 251 250 249 252 252 252 253 252 250 250 251 252 252 252 252 251 251 252 252 253 253 252 252 252 253 253 253 254 254 253 253 255 258 261 263 263 264 266 269 272 275 278 279 277 274 273 273 273 273 274 275 276 277 278 280 282
257 270 282 294 269 259 294 307 298 285 273 267 271 278 281 287 284 260 238 237 260 281 287 284 285 285 283 280 275 268 260 253 251 251 252 252 252 251 250 250 251 251 251 254 256 255 254 254 254 254 254 255 255 254 252 252 252 252 253 253 254 255 254 254 255 256 257 257 257 258 258 258 257 258 261 264 265 265 267 270 270 273 276 278 278 276 274 273 274 274 275 275 277 279 280 283 286
222 269 308 318 296 273 291 300 295 289 270 265 270 277 277 265 278 284 254 260 272 286 292 289 289 289 284 277 270 267 265 261 259 258 257 257 258 259 257 256 256 256 256 259 258 257 258 257 257 256 257 258 257 255 253 253 253 253 252 252 254 255 255 256 258 258 258 258 258 261 260 259 259 259 261 263 266 265 266 268 269 271 274 277 278 276 275 274 275 276 276 277 279 281 282 285 288
178 241 291 306 298 290 297 300 296 290 273 272 275 266 264 260 268 276 267 276 286 292 295 296 297 296 289 283 278 271 266 264 264 263 259 259 260 259 258 257 255 253 255 260 259 258 260 260 260 259 260 260 260 257 256 256 254 253 252 253 254 255 257 259 259 258 257 258 258 261 261 261 261 261 262 262 263 264 264 266 267 269 271 274 276 275 275 274 275 276 277 279 280 282 284 285 288
216 266 296 298 296 301 305 304 306 302 279 272 268 261 267 268 278 274 273 284 299 303 304 304 302 301 298 295 291 281 271 266 264 264 262 262 259 256 257 255 251 253 257 259 258 260 261 261 261 261 263 262 261 260 258 258 256 255 255 254 255 256 260 260 259 258 258 258 259 261 262 263 263 262 261 259 260 262 262 263 265 267 269 271 273 274 274 274 275 276 277 278 280 282 283 286 289
288 295 297 289 293 302 311 322 336 330 291 271 254 266 274 272 286 268 282 299 307 307 309 307 305 302 302 301 300 295 284 275 271 266 262 262 259 257 260 255 253 256 258 258 259 261 261 261 262 263 263 262 261 262 261 260 259 259 259 258 257 258 261 261 259 260 259 260 261 261 262 262 262 261 259 258 259 260 260 261 264 265 267 270 271 272 272 273 274 274 275 276 278 280 283 286 290
295 314 306 296 314 319 343 349 349 351 314 294 270 272 282 275 176 252 286 310 310 307 308 307 307 304 304 301 299 298 290 288 282 267 258 259 259 259 262 259 260 261 259 260 263 262 261 261 262 262 262 262 261 263 264 263 262 263 262 261 261 261 261 261 261 261 262 263 263 262 263 262 262 261 260 259 259 259 259 260 261 263 265 267 268 270 270 271 271 272 273 274 277 280 282 285 289
290 1 336 313 350 355 6 359 343 353 331 320 326 296 301 242 212 267 293 314 312 311 309 308 310 308 307 304 301 299 294 293 287 274 268 266 265 262 263 265 266 266 265 268 266 263 263 263 262 262 261 261 261 263 264 264 265 265 265 265 265 264 263 263 264 264 265 265 264 264 264 263 262 262 260 260 259 259 259 258 259 261 262 264 265 266 268 269 269 270 272 274 276 279 282 286 290
295 18 34 333 357 334 344 358 337 343 329 317 3 320 304 284 266 289 311 325 321 318 314 314 315 314 315 313 310 308 303 297 288 284 282 279 275 268 267 270 270 269 271 271 266 264 264 263 262 262 261 261 261 262 264 266 267 266 266 267 266 265 265 265 267 267 267 266 266 265 264 263 262 261 260 259 259 258 258 257 258 260 259 261 262 263 265 267 268 269 271 273 276 279 282 286 291
328 352 38 27 2 290 319 341 338 356 350 338 35 234 283 292 297 308 322 330 328 319 315 321 322 324 329 328 326 322 321 313 296 290 286 284 283 277 272 271 270 271 273 271 268 268 267 265 264 264 263 262 261 262 265 268 269 270 270 269 269 268 267 266 267 267 267 267 266 265 264 263 261 260 259 258 258 257 256 257 257 258 257 259 260 260 262 264 266 268 270 272 275 278 281 285 290
20 9 341 352 350 291 312 324 44 26 311 336 62 246 277 280 294 309 319 325 330 320 317 327 332 336 346 344 342 334 333 326 307 301 295 292 290 286 280 275 271 271 272 272 272 271 269 267 266 266 264 262 262 264 267 269 270 271 272 272 271 270 268 267 267 266 266 266 265 265 264 262 260 259 258 257 257 256 256 256 256 255 255 257 258 258 259 261 263 265 267 270 273 276 280 284 289
11 38 298 293 305 317 317 313 71 54 316 330 27 238 282 279 291 308 319 325 331 329 324 331 338 346 354 347 342 337 333 330 323 316 310 306 299 294 290 283 277 274 274 273 271 270 269 269 268 267 264 263 265 266 268 269 269 271 271 271 270 269 269 268 267 265 265 265 265 265 265 263 261 260 258 257 257 257 256 256 254 253 253 254 256 257 258 259 260 262 265 268 271 274 278 283 287
324 22 322 279 265 295 318 305 351 34 48 330 314 238 263 276 288 302 314 326 331 330 326 330 336 344 355 353 349 348 345 344 344 336 326 319 310 307 301 292 286 280 278 275 270 268 267 268 268 267 267 267 268 269 270 269 269 269 268 268 268 268 268 268 267 265 265 265 265 266 266 264 262 261 259 258 258 257 256 255 253 251 251 252 254 255 256 257 258 260 263 266 269 273 277 282 286
272 307 303 301 284 250 277 281 325 19 19 308 302 277 271 281 290 297 310 327 331 327 330 335 342 352 9 20 21 21 17 13 10 1 351 339 324 318 311 304 298 291 286 281 275 271 269 269 268 266 267 267 270 272 272 271 270 269 268 268 267 267 269 268 267 266 266 266 266 267 266 265 264 262 261 259 259 258 256 254 252 250 249 250 252 253 254 255 257 258 261 265 268 271 275 280 285
231 256 230 271 293 273 262 264 299 12 345 298 276 275 280 293 299 299 310 324 330 332 342 352 358 10 28 38 40 41 40 37 34 29 23 14 1 354 346 334 324 311 301 292 284 277 273 272 270 268 268 270 274 276 275 275 274 272 271 269 270 272 273 270 268 267 267 267 267 267 267 267 265 264 262 260 259 257 256 255 252 250 249 249 250 251 253 254 257 258 259 262 265 269 274 279 285
223 257 250 265 278 283 283 273 292 10 346 276 250 281 286 289 290 286 304 319 330 339 347 356 6 22 35 42 41 38 38 34 31 30 27 24 19 16 12 6 5 356 336 320 308 298 291 286 282 279 278 277 277 280 282 282 281 279 277 277 280 282 279 274 272 271 270 269 269 267 267 268 266 265 264 262 260 258 256 254 252 250 248 249 250 251 252 253 254 254 254 257 261 267 272 279 284
224 269 276 291 271 272 293 287 289 15 14 282 299 324 293 287 289 290 310 321 332 346 345 345 359 26 36 38 34 27 23 17 12 8 4 3 360 357 355 350 347 342 333 321 315 318 314 302 297 292 285 282 282 285 287 286 288 287 287 287 286 285 281 279 278 276 274 272 271 269 269 269 268 267 265 264 262 259 256 254 252 250 248 249 250 250 250 250 250 250 252 255 259 264 270 277 282
341 325 318 315 296 284 302 298 309 6 10 287 325 331 293 289 290 290 304 307 327 351 353 344 347 7 20 21 19 14 6 357 351 347 345 344 342 341 339 336 331 321 306 288 282 287 291 287 287 287 286 286 287 289 289 289 291 290 288 287 284 282 281 280 278 276 274 273 272 270 268 268 269 269 267 265 263 260 258 255 254 251 249 249 249 250 249 249 249 250 252 255 258 262 266 273 280
293 277 360 311 311 342 309 307 344 335 299 252 309 308 287 301 308 295 301 313 340 355 354 341 336 335 340 341 345 348 342 338 332 325 330 332 334 332 326 322 317 309 296 279 269 264 265 266 272 280 283 285 285 285 286 288 289 288 287 286 285 283 281 279 277 275 274 273 271 269 269 269 270 272 271 266 263 261 259 256 255 253 250 249 249 250 250 250 251 252 254 255 257 261 266 273 278
299 227 242 295 302 278 247 285 325 327 315 237 326 325 299 339 349 316 328 338 344 358 355 347 351 350 344 340 348 356 354 352 348 339 330 320 314 314 314 311 299 290 286 279 272 264 264 265 271 277 276 275 277 280 283 285 286 287 287 286 285 284 283 281 278 278 279 277 276 277 277 273 270 275 275 269 265 262 260 257 256 254 251 249 249 250 251 252 253 253 254 254 256 260 265 270 274
323 248 228 270 293 282 267 298 325 348 1 330 23 10 295 331 4 312 321 336 347 9 14 7 5 7 6 4 7 10 7 3 358 353 349 342 329 316 308 305 298 293 302 295 274 268 276 282 284 285 283 282 284 285 284 284 285 287 286 285 284 284 284 283 284 287 288 285 285 284 282 275 270 273 277 274 268 263 261 258 255 254 251 248 249 250 251 252 253 253 254 254 255 259 262 266 271
327 249 217 271 295 296 297 319 347 357 307 302 60 99 262 318 2 308 325 356 13 20 20 15 11 12 15 15 15 15 13 10 7 4 1 357 354 352 347 341 338 331 323 321 319 320 322 320 315 310 305 303 301 297 292 290 291 291 289 288 287 285 285 286 290 293 291 289 287 284 281 277 271 271 276 276 270 265 263 260 256 254 252 249 248 249 250 252 254 254 254 254 255 257 259 262 269
293 252 352 316 305 296 293 308 228 244 284 315 26 119 231 296 300 324 357 18 28 26 20 16 14 12 13 14 14 13 12 11 11 11 11 8 4 360 356 352 353 357 357 358 356 349 345 340 334 327 321 316 308 302 300 301 302 301 298 295 291 287 286 289 294 294 291 288 285 282 281 278 273 271 273 276 273 266 262 260 257 255 252 250 248 248 251 254 255 254 253 253 254 255 257 261 268
267 278 324 304 293 283 260 218 216 252 347 325 322 74 240 281 299 6 21 24 19 17 15 10 11 12 11 11 10 10 9 9 10 10 12 13 11 6 4 0 0 6 9 11 13 11 7 0 353 345 337 331 323 316 312 311 310 306 303 299 294 291 289 289 292 292 291 288 285 283 281 278 276 273 272 276 274 267 262 260 258 256 253 250 248 248 252 255 256 254 252 253 255 256 258 261 265
285 307 313 295 29 23 182 136 163 27 30 276 275 328 347 300 347 16 20 23 7 359 8 7 8 11 11 10 8 7 7 6 8 8 8 11 10 9 9 10 8 6 7 13 20 22 17 11 7 3 356 348 341 335 327 321 317 311 307 303 297 294 292 290 289 288 287 287 286 285 283 281 280 277 274 275 275 268 262 259 256 256 254 252 250 249 250 253 255 254 253 254 256 257 258 260 262
320 349 334 333 19 31 42 72 77 38 328 249 251 215 113 308 25 40 24 359 340 342 355 360 6 9 9 9 7 5 4 4 5 6 7 7 7 5 5 7 7 6 7 10 13 15 13 10 9 9 6 358 352 349 343 337 329 318 312 309 303 299 298 294 290 287 287 287 286 287 287 285 282 279 275 273 274 269 262 258 256 256 255 252 249 248 250 253 253 253 253 253 255 255 257 259 261
351 7 352 342 340 2 12 360 33 36 280 264 243 184 149 257 303 50 33 338 331 343 355 357 0 2 4 5 4 3 2 2 3 5 5 5 4 2 0 359 359 359 1 2 2 3 3 2 3 5 7 3 357 355 352 350 345 336 324 312 305 304 302 297 293 292 291 288 288 288 287 285 281 278 274 271 272 270 264 259 257 255 253 251 249 249 250 252 251 250 251 251 252 254 256 257 259
6 4 22 12 345 357 351 333 356 258 258 254 215 215 281 180 179 332 10 8 352 352 360 360 357 357 359 0 0 0 1 1 3 3 4 4 2 0 358 357 356 355 355 354 353 354 356 358 359 359 1 360 358 357 355 354 350 347 342 328 313 304 301 299 295 294 295 292 290 289 286 283 281 278 274 272 273 274 268 262 259 257 255 252 250 249 250 250 250 251 251 250 250 252 255 256 258
357 360 36 30 10 354 325 309 319 296 280 258 202 227 293 160 146 247 342 7 359 5 7 4 2 358 356 357 358 359 360 0 360 360 1 1 360 358 356 355 355 355 354 351 349 348 347 349 350 350 351 352 352 353 353 353 350 347 346 343 333 315 302 298 297 295 295 294 291 288 286 283 281 278 276 275 276 276 271 265 262 260 256 253 251 250 249 249 251 253 252 248 248 251 253 255 258
322 187 138 72 86 335 294 269 285 302 302 298 285 207 258 215 155 182 197 1 7 10 7 4 4 1 358 359 1 360 358 357 356 355 356 356 356 355 354 353 353 353 353 352 350 348 345 344 342 340 339 340 341 342 344 346 347 345 343 343 343 335 317 301 295 296 296 294 291 288 285 283 281 279 277 276 275 273 270 266 262 259 256 253 251 250 247 246 251 254 249 244 245 249 251 253 256
293 165 93 17 190 179 253 236 230 276 296 302 304 240 242 155 142 123 32 5 8 7 3 2 359 358 360 1 2 360 356 353 351 350 349 350 351 351 350 350 349 349 349 349 350 349 348 345 342 338 334 332 333 334 334 336 340 342 341 339 339 340 335 320 305 299 298 297 293 287 284 282 280 280 278 275 273 272 270 267 263 260 257 255 252 250 246 245 251 253 245 241 243 247 251 253 256
315 360 310 269 185 152 206 270 275 336 278 279 291 283 302 131 142 22 16 5 3 2 358 356 353 355 359 360 360 357 352 348 345 343 343 344 345 346 346 346 345 346 345 345 345 346 347 346 344 342 338 334 333 331 330 329 329 332 335 338 336 334 335 333 324 312 304 299 294 286 282 280 278 277 277 275 273 272 270 267 264 261 258 256 254 250 246 244 252 253 244 240 242 246 251 253 255
74 309 273 265 104 104 116 275 335 353 272 272 313 290 294 241 264 4 17 5 359 356 350 350 351 354 355 354 353 351 347 343 339 336 336 337 340 342 342 342 341 341 341 340 340 340 341 342 342 342 341 339 337 335 332 329 328 327 326 329 332 330 329 330 330 324 314 304 296 290 284 279 276 276 276 275 273 271 269 267 264 262 260 257 254 250 245 244 251 254 245 239 240 245 250 252 254
171 266 278 10 3 319 352 321 318 317 282 280 296 287 286 129 293 347 11 2 355 348 344 347 349 349 347 343 342 340 339 338 334 332 330 331 335 337 339 338 336 336 336 336 336 336 337 337 338 338 339 339 339 338 336 333 331 330 327 325 325 325 326 326 327 325 320 312 304 297 289 282 278 276 274 274 273 271 269 266 264 263 261 257 253 248 244 245 251 254 246 237 236 242 247 250 253
350 325 315 5 183 223 273 295 253 283 283 285 290 289 292 115 285 344 9 359 352 344 343 347 345 343 339 336 334 332 333 332 329 328 326 325 329 334 335 334 332 331 332 332 333 333 333 334 334 335 335 336 336 336 336 334 332 332 331 329 326 324 323 323 323 323 320 317 312 303 294 285 280 276 273 272 273 271 270 268 266 264 261 257 252 246 246 248 252 253 246 237 234 239 245 250 253
343 339 318 324 315 232 291 287 144 247 281 292 298 290 287 148 208 19 10 358 353 344 340 341 339 337 334 331 331 329 329 329 327 325 323 322 326 331 332 330 329 328 327 328 329 330 330 330 330 331 332 332 333 333 333 333 332 331 331 331 329 326 323 320 319 320 319 318 314 307 299 290 282 278 274 272 271 271 270 269 267 265 262 258 253 247 248 250 252 252 246 237 234 237 243 248 253
214 297 329 343 349 10 336 298 322 358 295 300 301 295 293 152 199 27 17 356 343 333 332 337 336 335 332 330 332 331 330 329 327 324 322 322 326 329 328 327 326 326 325 326 326 326 327 327 327 327 327 328 328 330 330 330 329 329 329 329 327 325 323 319 315 316 317 317 313 307 300 292 284 280 277 274 272 271 270 269 268 266 262 260 255 249 249 251 253 251 246 238 234 236 240 246 252